STARLINK-31944 (59872 NORAD) Tracking and Keplerian Element Data

This shows tracking and keplerian element data for the satellite.

Feedback or suggestion? Click here.




ElementValue
Catalog59872
NameSTARLINK-31944
Epoch Orbit289
Epoch Day160.16667824
Epoch Year2024
RAAN327.9541
Inclination43.0052
Eccentricity0.0003874
Argument of Perigee295.7945
Mean Anonmoly203.1803
Mean Motion15.77097906
Decay Rate0.0018612
L11 59872U 24098Q 24160.16667824 .00186120 00000+0 10850-2 0 9990
L22 59872 43.0052 327.9541 0003874 295.7945 203.1803 15.77097906 2898



Live tracking and technical data element details for STARLINK-31944 (NORAD 59872). STARLINK-31944 can be tracked NOW for your location showing map with azimuth and elevation plus other details from your city location.







IsCatalogInMostPopularTable: catalog: 59872, numindb: 6
Update: records affected: 1



GetName: 59872 STARLINK-31944

Hit Count: updated at: Tue, 16 Jul 2024 02:19:58 GMT